Weather History for Kecskemet, Hungary

Change the Weather History Date:

Wednesday, November 21, 2012

  Actual Average (LHBP) Record (LHBP)
Temperature  
Mean Temperature 42 °F -  
Max Temperature 46 °F 43 °F 62 °F (2002)
Min Temperature 37 °F 32 °F 14 °F (1999)
Degree Days  
Heating Degree Days 24    
Moisture  
Dew Point 40 °F    
Average Humidity 97    
Maximum Humidity 100    
Minimum Humidity 87    
Precipitation  
Precipitation 0.00 in - - ()
Sea Level Pressure  
Sea Level Pressure 30.22 in    
Wind  
Wind Speed 4 mph ()    
Max Wind Speed 7 mph    
Max Gust Speed -    
Visibility 1.0 miles    
Events Fog    
Averages and records for this station are not official NWS values.
T = Trace of Precipitation, MM = Missing Value Source: Averaged Metar Reports

Daily Weather History Graph

Daily Weather History Graph

Search for Another Location

Airport:

Trip Planner

Search our weather history database for the weather conditions in past years. The results will help you decide how hot, cold, wet, or windy it might be!

Date:

Astronomy

Nov. 21, 2012 Rise Set
Actual Time 6:52 AM CET 4:00 PM CET
Civil Twilight 6:19 AM CET 4:34 PM CET
Nautical Twilight 5:41 AM CET 5:11 PM CET
Astronomical Twilight 5:05 AM CET 5:47 PM CET
Moon 12:30 PM CET (11/21) No Moon Set
Length of Visible Light 10h 15m
Length of Day
9h 07m
First Quarter, 59% of the Moon is Illuminated
Nov 21
First Quarter
Nov 28
Full
Dec 6
Last Quarter
Dec 13
New
Dec 20
First Quarter

Hourly Weather History & Observations

Time (CET) Temp. Windchill Dew Point Humidity Pressure Visibility Wind Dir Wind Speed Gust Speed Precip Events Conditions
12:15 AM 39.2 °F 34.4 °F 39.2 °F 100% 30.24 in 0.1 mi NE 6.7 mph - N/A Fog Fog
12:45 AM 39.2 °F 34.4 °F 39.2 °F 100% 30.21 in 0.1 mi NE 6.7 mph - N/A Fog Fog
1:15 AM 39.2 °F 36.0 °F 39.2 °F 100% 30.21 in 0.1 mi NE 4.5 mph - N/A Fog Fog
1:45 AM 39.2 °F 36.0 °F 39.2 °F 100% 30.24 in 0.2 mi NE 4.5 mph - N/A Fog Fog
2:15 AM 39.2 °F 36.0 °F 39.2 °F 100% 30.24 in 0.2 mi NNE 4.5 mph - N/A Fog Fog
2:45 AM 39.2 °F 36.0 °F 39.2 °F 100% 30.21 in 0.2 mi NNE 4.5 mph - N/A Fog Fog
3:15 AM 39.2 °F 36.0 °F 39.2 °F 100% 30.21 in 0.2 mi NNE 4.5 mph - N/A Fog Fog
3:45 AM 39.2 °F 36.0 °F 39.2 °F 100% 30.21 in 0.4 mi NE 4.5 mph - N/A Fog Fog
4:00 AM - - - N/A% - 0.4 mi Variable 4.5 mph - N/A Fog Fog
4:03 AM 39.2 °F 36.0 °F 39.2 °F 100% 30.21 in 0.5 mi NE 4.5 mph - N/A Fog Fog
4:15 AM 39.2 °F 36.0 °F 39.2 °F 100% 30.21 in 0.5 mi NE 4.5 mph - N/A Fog Fog
4:45 AM 39.2 °F 36.0 °F 39.2 °F 100% 30.21 in 0.5 mi NE 4.5 mph - N/A Fog Fog
5:15 AM 39.2 °F 34.4 °F 39.2 °F 100% 30.21 in 0.5 mi NE 6.7 mph - N/A Fog Fog
5:39 AM 39.2 °F 36.0 °F 39.2 °F 100% 30.21 in 0.4 mi ENE 4.5 mph - N/A Fog Fog
5:45 AM - - - N/A% - 0.9 mi NE 4.5 mph - N/A   Mostly Cloudy
5:54 AM 37.4 °F - 37.4 °F 100% 30.21 in 0.2 mi East 2.2 mph - N/A Fog Fog
6:15 AM 37.4 °F 33.9 °F 37.4 °F 100% 30.21 in 0.1 mi East 4.5 mph - N/A Fog Fog
6:45 AM 37.4 °F 33.9 °F 37.4 °F 100% 30.24 in 0.1 mi ENE 4.5 mph - N/A Fog Fog
7:15 AM 37.4 °F 33.9 °F 37.4 °F 100% 30.24 in 0.1 mi NNE 4.5 mph - N/A Fog Fog
7:45 AM 39.2 °F 36.0 °F 39.2 °F 100% 30.24 in 0.1 mi NNE 4.5 mph - N/A Fog Fog
8:15 AM 39.2 °F 36.0 °F 39.2 °F 100% 30.24 in 0.2 mi NNE 4.5 mph - N/A Fog Fog
8:45 AM - - - N/A% - 0.4 mi ENE 4.5 mph - N/A Fog Fog
9:00 AM - - - N/A% - 0.4 mi ENE 4.5 mph - N/A Fog Fog
9:01 AM 39.2 °F 36.0 °F 39.2 °F 100% 30.24 in 0.5 mi NE 4.5 mph - N/A Fog Fog
9:04 AM 39.2 °F 36.0 °F 39.2 °F 100% 30.24 in 0.5 mi NE 4.5 mph - N/A Fog Fog
9:05 AM - - - N/A% - 0.4 mi ENE 4.5 mph - N/A Fog Fog
9:15 AM 39.2 °F 36.0 °F 39.2 °F 100% 30.24 in 0.5 mi NE 4.5 mph - N/A Fog Fog
9:30 AM 39.2 °F 36.0 °F 39.2 °F 100% 30.24 in 0.6 mi NE 4.5 mph - N/A   Overcast
9:45 AM 39.2 °F 36.0 °F 39.2 °F 100% 30.24 in 0.6 mi NE 4.5 mph - N/A   Overcast
10:15 AM 41.0 °F 38.1 °F 41.0 °F 100% 30.24 in 0.9 mi NNE 4.5 mph - N/A   Overcast
10:45 AM 41.0 °F 38.1 °F 41.0 °F 100% 30.24 in 1.6 mi NE 4.5 mph - N/A   Mostly Cloudy
11:10 AM 42.8 °F - 41.0 °F 93% 30.24 in 1.9 mi NE 2.2 mph - N/A   Mostly Cloudy
11:15 AM 42.8 °F - 41.0 °F 93% 30.24 in 1.9 mi NE 2.2 mph - N/A   Mostly Cloudy
11:45 AM - - - N/A% - 2.5 mi Variable 4.5 mph - N/A   Mostly Cloudy
12:15 PM 44.6 °F - 41.0 °F 87% 30.21 in 2.2 mi NE 2.2 mph - N/A   Mostly Cloudy
12:45 PM 46.4 °F - 42.8 °F 87% 30.21 in 2.2 mi NE 2.2 mph - N/A   Mostly Cloudy
1:15 PM 46.4 °F - 42.8 °F 87% 30.21 in 2.5 mi ENE 2.2 mph - N/A   Mostly Cloudy
1:45 PM 46.4 °F - 42.8 °F 87% 30.21 in 2.8 mi ENE 2.2 mph - N/A   Mostly Cloudy
2:15 PM 46.4 °F - 42.8 °F 87% 30.21 in 2.8 mi East 2.2 mph - N/A   Mostly Cloudy
2:45 PM - - - N/A% - 2.5 mi Variable 4.5 mph - N/A Fog Fog
3:15 PM 46.4 °F 44.4 °F 42.8 °F 87% 30.21 in 2.8 mi ESE 4.5 mph - N/A   Mostly Cloudy
3:45 PM 46.4 °F 44.4 °F 42.8 °F 87% 30.21 in 2.8 mi East 4.5 mph - N/A   Mostly Cloudy
4:15 PM 46.4 °F 44.4 °F 42.8 °F 87% 30.21 in 1.9 mi East 4.5 mph - N/A   Mostly Cloudy
4:45 PM 44.6 °F - 42.8 °F 93% 30.21 in 1.9 mi ESE 2.2 mph - N/A   Mostly Cloudy
5:15 PM 42.8 °F 40.2 °F 42.8 °F 100% 30.21 in 1.6 mi SE 4.5 mph - N/A   Mostly Cloudy
5:45 PM - - - N/A% - 0.9 mi Variable 4.5 mph - N/A Fog Fog
6:15 PM 41.0 °F - 41.0 °F 100% 30.21 in 0.9 mi ESE 2.2 mph - N/A   Mostly Cloudy
6:45 PM 41.0 °F - 41.0 °F 100% 30.21 in 0.9 mi SE 2.2 mph - N/A   Mostly Cloudy
7:15 PM 41.0 °F - 41.0 °F 100% 30.21 in 0.9 mi Calm Calm - N/A   Mostly Cloudy
7:45 PM 39.2 °F - 39.2 °F 100% 30.21 in 0.7 mi ESE 2.2 mph - N/A   Mostly Cloudy
8:15 PM 39.2 °F - 39.2 °F 100% 30.21 in 0.6 mi Calm Calm - N/A   Mostly Cloudy
8:35 PM 37.4 °F - 37.4 °F 100% 30.24 in 5.0 mi ENE 2.2 mph - N/A Fog Fog
8:37 PM 37.4 °F - 37.4 °F 100% 30.24 in 0.5 mi ENE 2.2 mph - N/A Fog Fog
8:45 PM - - - N/A% - 0.5 mi Variable 4.5 mph - N/A Fog Fog
9:15 PM 39.2 °F - 39.2 °F 100% 30.24 in 0.4 mi Calm Calm - N/A Fog Fog
9:45 PM 39.2 °F - 39.2 °F 100% 30.24 in 0.5 mi Calm Calm - N/A Fog Fog
10:15 PM 39.2 °F - 39.2 °F 100% 30.24 in 0.7 mi Calm Calm - N/A   Overcast
10:25 PM - - - N/A% - 0.9 mi Variable 4.5 mph - N/A Fog Fog
10:45 PM 39.2 °F - 39.2 °F 100% 30.24 in 0.9 mi Calm Calm - N/A   Overcast
11:15 PM 39.2 °F - 39.2 °F 100% 30.24 in 1.2 mi East 2.2 mph - N/A   Mostly Cloudy
11:45 PM - - - N/A% - 1.9 mi North - - N/A Fog Fog